This demonstration page uses our WeatherBlox Daily Observations layout. Learn more.

Left ArrowRight Arrow

Hourly Observations for July 25, 2019

Temp ( °F °C ) Dew Point ( °F °C ) Humidity (%) Winds ( mph kmh ) Pressure ( in mb ) Visibility ( mi km ) Precip ( " mm )
12:53 am 00:53 Clear 60 15.6 59 15 96 96 N N/A 30.14 1021 10 16 N/A
1:53 am 01:53 Clear 59 15 58 14.4 96 96 N N/A 30.14 1021 10 16 N/A
2:53 am 02:53 Clear 59 15 58 14.4 96 96 N N/A 30.15 1021 10 16 N/A
3:53 am 03:53 Clear 58 14.4 57 13.9 97 97 N N/A 30.15 1021 10 16 N/A
4:53 am 04:53 Clear 58 14.4 57 13.9 97 97 N N/A 30.16 1021 10 16 N/A
5:53 am 05:53 Clear 56 13.3 56 13.3 100 100 N N/A 30.17 1022 10 16 N/A
6:53 am 06:53 Sunny 56 13.3 55 12.8 97 97 N N/A 30.19 1022 10 16 N/A
7:53 am 07:53 Sunny 62 16.7 57 13.9 84 84 N N/A 30.21 1023 10 16 N/A
8:53 am 08:53 Sunny 67 19.4 59 15 76 76 N N/A 30.23 1024 10 16 N/A
9:53 am 09:53 Sunny 71 21.7 59 15 66 66 N N/A 30.23 1024 10 16 N/A
10:53 am 10:53 Sunny 76 24.4 58 14.4 54 54 NE 5 7 30.23 1024 10 16 N/A
11:53 am 11:53 Sunny 77 25 56 13.3 48 48 VRB 3 6 30.23 1024 10 16 N/A
12:53 pm 12:53 Sunny 79 26.1 54 12.2 42 42 VRB 3 6 30.22 1023 10 16 N/A
1:53 pm 13:53 Partly Cloudy 80 26.7 57 13.9 45 45 E 9 15 30.21 1023 10 16 N/A
2:53 pm 14:53 Sunny 81 27.2 53 11.7 38 38 VRB 3 6 30.20 1023 10 16 N/A
3:53 pm 15:53 Sunny 82 27.8 55 12.8 40 40 N N/A 30.19 1023 10 16 N/A
4:53 pm 16:53 Sunny 82 27.8 56 13.3 41 41 VRB 7 11 30.18 1022 10 16 N/A
5:53 pm 17:53 Sunny 81 27.2 55 12.8 41 41 VRB 5 7 30.17 1022 10 16 N/A
6:53 pm 18:53 Sunny 81 27.2 52 11.1 37 37 E 3 6 30.18 1022 10 16 N/A
7:53 pm 19:53 Sunny 77 25 62 16.7 60 60 E 3 6 30.19 1022 10 16 N/A
8:53 pm 20:53 Sunny 69 20.6 64 17.8 84 84 N N/A 30.19 1022 10 16 N/A
9:53 pm 21:53 Clear 66 18.9 62 16.7 87 87 N N/A 30.21 1023 10 16 N/A
10:53 pm 22:53 Clear 64 17.8 61 16.1 90 90 N N/A 30.22 1023 10 16 N/A
11:53 pm 23:53 Clear 63 17.2 60 15.6 90 90 N N/A 30.22 1023 10 16 N/A

Powered by AerisWeather